Location: Maiden
(35.5760°N, 81.2120°W)
Time: 02:36:10
(UTC-04:00)

A-11 Canister half - Pass Details

Date: 11 August 2020
Orbit: 1527 x 1682 km, 47.3° (Epoch: 25 September)

Event Time Altitude Azimuth Distance (km) Brightness Sun altitude
Rises 10:14:21 0° 189° (S) 4,843 11.7 41.8°
Reaches altitude 10° 10:18:11 10° 177° (S) 3,881 11.4 42.6°
Maximum altitude 10:25:49 26° 126° (SE) 2,879 11.9 44.1°
Drops below altitude 10° 10:33:31 10° 76° (ENE) 3,944 12.0 45.6°
Sets 10:37:24 0° 64° (ENE) 4,936 12.1 46.4°
